Weather History for KUOX - June, 2013

Change the Weather History Date:

Friday, June 7, 2013

  Actual Average (KTUP) Record (KTUP)
Temperature  
Mean Temperature 68 °F 76 °F  
Max Temperature 78 °F 87 °F 98 °F (2011)
Min Temperature 59 °F 66 °F 51 °F (2000)
Degree Days  
Heating Degree Days 0 0  
Month to date heating degree days 0  
Since 1 June heating degree days 0  
Since 1 July heating degree days 2956  
Cooling Degree Days 4 11  
Month to date cooling degree days 74  
Year to date cooling degree days 351  
Since 1 June cooling degree days 74  
Growing Degree Days 18 (Base 50)    
Moisture  
Dew Point 61 °F    
Average Humidity 75    
Maximum Humidity 94    
Minimum Humidity 47    
Precipitation  
Precipitation 0.00 in 0.15 in 3.22 in (1978)
Month to date precipitation 1.08  
Year to date precipitation 25.68  
Snow  
Snow 0.00 in 0.00 in - ()
Month to date snowfall 0.0  
Since 1 June snowfall 0.0  
Since 1 July snowfall 2.1  
Snow Depth -    
Sea Level Pressure  
Sea Level Pressure 29.86 in    
Wind  
Wind Speed 2 mph (NNW)    
Max Wind Speed 9 mph    
Max Gust Speed -    
Visibility 8 miles    
Events      
T = Trace of Precipitation, MM = Missing Value Source: NWS Daily Summary

Daily Weather History Graph

Daily Weather History Graph

Search for Another Location

Airport or City:

Trip Planner

Search our weather history database for the weather conditions in past years. The results will help you decide how hot, cold, wet, or windy it might be!

Date:

Astronomy

Jun. 07, 2013 Rise Set
Actual Time 5:45 AM CDT 8:08 PM CDT
Civil Twilight 5:16 AM CDT 8:37 PM CDT
Nautical Twilight 4:40 AM CDT 9:13 PM CDT
Astronomical Twilight 4:01 AM CDT 9:53 PM CDT
Moon 5:05 AM CDT (6/7) 7:25 PM CDT (6/7)
Length of Visible Light 15h 21m
Length of Day
14h 23m
Waning Crescent, 1% of the Moon is Illuminated
Jun 7
Waning Crescent
Jun 8
New
Jun 16
First Quarter
Jun 23
Full
Jun 29
Last Quarter

Hourly Weather History & Observations

Time (CDT) Temp. Dew Point Humidity Pressure Visibility Wind Dir Wind Speed Gust Speed Precip Events Conditions
12:15 AM 69.8 °F 66.2 °F 88% 29.83 in 5.0 mi Calm Calm - N/A   Partly Cloudy
12:35 AM 69.8 °F 66.2 °F 88% 29.82 in 5.0 mi Calm Calm - N/A   Mostly Cloudy
12:55 AM 68.0 °F 66.2 °F 94% 29.82 in 5.0 mi Calm Calm - N/A   Partly Cloudy
1:15 AM 69.8 °F 66.2 °F 88% 29.81 in 6.0 mi Calm Calm - N/A   Clear
1:35 AM 68.0 °F 66.2 °F 94% 29.81 in 6.0 mi Calm Calm - N/A   Clear
1:55 AM 69.8 °F 64.4 °F 83% 29.80 in 7.0 mi Calm Calm - N/A   Clear
2:15 AM 68.0 °F 64.4 °F 88% 29.80 in 6.0 mi Calm Calm - N/A   Clear
2:35 AM 68.0 °F 66.2 °F 94% 29.80 in 5.0 mi Calm Calm - N/A   Clear
2:55 AM 68.0 °F 64.4 °F 88% 29.80 in 5.0 mi Calm Calm - N/A   Clear
3:15 AM 68.0 °F 64.4 °F 88% 29.80 in 7.0 mi Calm Calm - N/A   Clear
3:35 AM 68.0 °F 64.4 °F 88% 29.80 in 7.0 mi Calm Calm - N/A   Clear
3:55 AM 68.0 °F 64.4 °F 88% 29.79 in 5.0 mi Calm Calm - N/A   Haze
4:15 AM 68.0 °F 64.4 °F 88% 29.79 in 6.0 mi Calm Calm - N/A   Clear
4:35 AM 68.0 °F 64.4 °F 88% 29.81 in 7.0 mi NNW 3.5 mph - N/A   Clear
4:55 AM 68.0 °F 64.4 °F 88% 29.81 in 7.0 mi North 3.5 mph - N/A   Clear
5:15 AM 68.0 °F 62.6 °F 83% 29.81 in 6.0 mi North 3.5 mph - N/A   Haze
5:35 AM 68.0 °F 62.6 °F 83% 29.82 in 6.0 mi North 4.6 mph - N/A   Haze
5:55 AM 68.0 °F 62.6 °F 83% 29.83 in 7.0 mi Calm Calm - N/A   Scattered Clouds
6:15 AM 68.0 °F 62.6 °F 83% 29.84 in 5.0 mi Calm Calm - N/A   Haze
6:35 AM 68.0 °F 62.6 °F 83% 29.84 in 5.0 mi Calm Calm - N/A   Haze
6:55 AM 66.2 °F 62.6 °F 88% 29.84 in 5.0 mi North 3.5 mph - N/A   Clear
7:15 AM 68.0 °F 62.6 °F 83% 29.85 in 5.0 mi North 3.5 mph - N/A   Haze
7:35 AM 68.0 °F 62.6 °F 83% 29.85 in 5.0 mi North 3.5 mph - N/A   Haze
7:55 AM 68.0 °F 62.6 °F 83% 29.86 in 5.0 mi North 3.5 mph - N/A   Haze
8:15 AM 68.0 °F 62.6 °F 83% 29.87 in 5.0 mi Calm Calm - N/A   Haze
8:35 AM 68.0 °F 62.6 °F 83% 29.87 in 6.0 mi North 3.5 mph - N/A   Haze
8:55 AM 68.0 °F 62.6 °F 83% 29.88 in 5.0 mi NNW 4.6 mph - N/A   Haze
9:15 AM 68.0 °F 62.6 °F 83% 29.88 in 7.0 mi NNW 3.5 mph - N/A   Scattered Clouds
9:35 AM 68.0 °F 62.6 °F 83% 29.89 in 6.0 mi North 4.6 mph - N/A   Haze
9:55 AM 68.0 °F 62.6 °F 83% 29.89 in 7.0 mi North 4.6 mph - N/A   Partly Cloudy
10:15 AM 68.0 °F 62.6 °F 83% 29.89 in 6.0 mi North 3.5 mph - N/A   Haze
10:35 AM 68.0 °F 62.6 °F 83% 29.89 in 7.0 mi NNW 4.6 mph - N/A   Scattered Clouds
10:55 AM 69.8 °F 60.8 °F 73% 29.90 in 9.0 mi North 6.9 mph - N/A   Scattered Clouds
11:15 AM 71.6 °F 60.8 °F 69% 29.90 in 8.0 mi North 6.9 mph - N/A   Partly Cloudy
11:35 AM 71.6 °F 60.8 °F 69% 29.90 in 8.0 mi North 4.6 mph - N/A   Mostly Cloudy
11:55 AM 71.6 °F 60.8 °F 69% 29.90 in 8.0 mi North 5.8 mph - N/A   Scattered Clouds
12:15 PM 73.4 °F 60.8 °F 65% 29.90 in 8.0 mi North 4.6 mph - N/A   Clear
12:35 PM 71.6 °F 59.0 °F 64% 29.89 in 9.0 mi North 8.1 mph - N/A   Partly Cloudy
12:55 PM 71.6 °F 60.8 °F 69% 29.89 in 9.0 mi North 4.6 mph - N/A   Partly Cloudy
1:15 PM 73.4 °F 60.8 °F 65% 29.89 in 8.0 mi North 5.8 mph - N/A   Partly Cloudy
1:35 PM 73.4 °F 60.8 °F 65% 29.88 in 8.0 mi NNW 3.5 mph - N/A   Partly Cloudy
1:55 PM 75.2 °F 59.0 °F 57% 29.88 in 9.0 mi North 5.8 mph - N/A   Partly Cloudy
2:15 PM 75.2 °F 62.6 °F 65% 29.87 in 8.0 mi NW 5.8 mph - N/A   Partly Cloudy
2:35 PM 75.2 °F 62.6 °F 65% 29.87 in 9.0 mi NNW 6.9 mph - N/A   Scattered Clouds
3:15 PM 78.8 °F 59.0 °F 51% 29.87 in 9.0 mi WNW 6.9 mph - N/A   Partly Cloudy
3:35 PM 77.0 °F 59.0 °F 54% 29.87 in 8.0 mi NNW 4.6 mph - N/A   Partly Cloudy
3:55 PM 77.0 °F 59.0 °F 54% 29.87 in 8.0 mi North 8.1 mph - N/A   Scattered Clouds
4:15 PM 78.8 °F 59.0 °F 51% 29.86 in 8.0 mi North 5.8 mph - N/A   Clear
4:35 PM 78.8 °F 59.0 °F 51% 29.86 in 8.0 mi NW 9.2 mph - N/A   Partly Cloudy
4:55 PM 77.0 °F 57.2 °F 50% 29.86 in 8.0 mi NNW 5.8 mph - N/A   Scattered Clouds
5:15 PM 78.8 °F 59.0 °F 51% 29.86 in 8.0 mi NNW 8.1 mph - N/A   Partly Cloudy
5:35 PM 77.0 °F 57.2 °F 50% 29.86 in 9.0 mi North 4.6 mph - N/A   Partly Cloudy
5:55 PM 77.0 °F 57.2 °F 50% 29.86 in 9.0 mi NW 6.9 mph - N/A   Scattered Clouds
6:15 PM 77.0 °F 57.2 °F 50% 29.87 in 10.0 mi NNW 8.1 mph - N/A   Partly Cloudy
6:35 PM 77.0 °F 55.4 °F 47% 29.87 in 9.0 mi NW 5.8 mph - N/A   Partly Cloudy
6:55 PM 77.0 °F 55.4 °F 47% 29.88 in 9.0 mi NNW 5.8 mph - N/A   Clear
7:15 PM 75.2 °F 55.4 °F 50% 29.88 in 9.0 mi NNW 4.6 mph - N/A   Clear
7:35 PM 73.4 °F 55.4 °F 53% 29.88 in 9.0 mi NNW 3.5 mph - N/A   Clear
7:55 PM 71.6 °F 55.4 °F 57% 29.88 in 8.0 mi Calm Calm - N/A   Clear
8:15 PM 68.0 °F 57.2 °F 68% 29.89 in 8.0 mi Calm Calm - N/A   Clear
8:35 PM 66.2 °F 59.0 °F 78% 29.90 in 10.0 mi Calm Calm - N/A   Clear
8:55 PM 64.4 °F 59.0 °F 83% 29.91 in 10.0 mi Calm Calm - N/A   Clear
9:15 PM 64.4 °F 59.0 °F 83% 29.92 in 10.0 mi Calm Calm - N/A   Clear
9:35 PM 62.6 °F 59.0 °F 88% 29.92 in 10.0 mi Calm Calm - N/A   Clear
9:55 PM 62.6 °F 59.0 °F 88% 29.93 in 10.0 mi Calm Calm - N/A   Clear
10:15 PM 60.8 °F 57.2 °F 88% 29.92 in 9.0 mi Calm Calm - N/A   Clear
10:35 PM 60.8 °F 57.2 °F 88% 29.92 in 10.0 mi Calm Calm - N/A   Clear
10:55 PM 59.0 °F 57.2 °F 94% 29.92 in 10.0 mi Calm Calm - N/A   Clear
11:15 PM 59.0 °F 57.2 °F 94% 29.92 in 9.0 mi Calm Calm - N/A   Clear
11:35 PM 59.0 °F 57.2 °F 94% 29.92 in 9.0 mi Calm Calm - N/A   Clear
11:55 PM 59.0 °F 57.2 °F 94% 29.92 in 9.0 mi Calm Calm - N/A   Clear